Weather in Kirillovo

Russia / Penza Oblast     53°45′20″N   42°39′55″E
temp.,
°C
wind,
m/s
gust,
m/s
humid.,
%
clouds,
%
prec.,
mm/h
press.,
hPa
HPBL,
m
21 january, fri
fri2100:00−13s61692100 0.0 1014331
03:00−13s71692100 0.0 1014342
06:00−12s71791100 0.0 1011356
09:00−11s81989100 0.0 1011478
12:00−8sse92091100 0.1 1009641
15:00−7sse101893100 1.3 1007746
18:00−6sse91693100 0.8 1006620
21:00−6sse81695100 1.8 1005636
22 january, sat
sat2200:00−4s599699 1.1 1006309
03:00−8s5129593 1.2 1009225
06:00−10sse5129471 0.0 1010224
09:00−11s51294100 0.0 1012234
12:00−9s5129476 0.0 1013330
15:00−8sse5119475 0.0 1014312
18:00−10sse3995100 0.0 1016171
21:00−10sse3796100 0.0 1018144
23 january, sun
sun2300:00−12sse369762 0.0 1020101
03:00−16sse34100100 0.0 102145
06:00−10sse3699100 0.1 1023183
09:00−8sse3494100 0.1 1025297
12:00−7e2293100 0.0 1027149
15:00−6ne3494100 0.0 1028137
18:00−7ne4994100 0.0 1029214
21:00−5ene41096100 0.1 1030338
24 january, mon
mon2400:00−4e51096100 0.6 1030439
03:00−4e5991100 1.1 1031386
06:00−8e41089100 0.0 1032211
09:00−9e41087100 0.0 1032217
12:00−7e4987100 0.0 1033291
15:00−7e4988100 0.0 1032240
18:00−10e499296 0.0 1032144
21:00−12e389396 0.0 1032108
25 january, tue
tue2500:00−10se41187100 0.0 1032211
03:00−11se41087100 0.0 1031178
06:00−11se41086100 0.0 1030193
09:00−13se3988100 0.0 1030172
12:00−9sse51284100 0.0 1029313
15:00−9sse41186100 0.0 1028284
18:00−12sse4129136 0.0 1028183
21:00−12sse411909 0.0 1028195